QPF
0.03 0.05 0.09 0.14 0.15 0.12 0.11 0.14 0.20 0.24 0.20 0.18 0.17 0.15 0.12 0.09 0.08 0.08 0.07 0.08 0.07 0.06 0.06 0.05 0.04 0.04 0.04 0.05 0.06 0.07 0.06 0.06 0.07 0.06 0.05 0.04 0.03 0.02 0.02 0.03 0.04 0.04 0.05
0.04 0.05 0.06 0.09 0.11 0.14 0.13 0.21 0.32 0.25 0.16 0.15 0.17 0.16 0.13 0.10 0.10 0.09 0.08 0.07 0.07 0.06 0.05 0.05 0.04 0.04 0.04 0.04 0.05 0.05 0.05 0.05 0.06 0.06 0.05 0.04 0.03 0.02 0.02 0.02 0.03 0.04 0.04
0.03 0.03 0.04 0.08 0.10 0.14 0.17 0.21 0.19 0.14 0.14 0.14 0.13 0.11 0.11 0.11 0.10 0.09 0.08 0.08 0.08 0.06 0.05 0.04 0.04 0.05 0.06 0.05 0.05 0.05 0.05 0.05 0.06 0.06 0.06 0.04 0.03 0.03 0.02 0.02 0.02 0.02 0.02
0.03 0.03 0.04 0.06 0.08 0.13 0.17 0.20 0.16 0.18 0.18 0.13 0.11 0.11 0.12 0.12 0.10 0.08 0.07 0.06 0.06 0.05 0.05 0.05 0.05 0.05 0.06 0.08 0.09 0.09 0.08 0.07 0.06 0.06 0.06 0.05 0.04 0.04 0.02 0.02 0.01 0.02 0.03
0.04 0.07 0.05 0.05 0.06 0.12 0.19 0.21 0.20 0.20 0.21 0.18 0.15 0.13 0.13 0.13 0.12 0.09 0.08 0.06 0.05 0.06 0.07 0.07 0.07 0.09 0.09 0.10 0.10 0.09 0.10 0.09 0.07 0.07 0.07 0.05 0.04 0.04 0.03 0.02 0.01 0.02 0.02
0.05 0.07 0.08 0.05 0.06 0.11 0.18 0.17 0.14 0.15 0.16 0.19 0.19 0.17 0.14 0.11 0.09 0.07 0.07 0.07 0.06 0.06 0.08 0.10 0.10 0.09 0.09 0.10 0.11 0.10 0.12 0.11 0.09 0.08 0.08 0.06 0.04 0.03 0.04 0.03 0.02 0.03 0.03
0.04 0.05 0.04 0.07 0.07 0.07 0.09 0.08 0.09 0.10 0.10 0.12 0.13 0.12 0.10 0.10 0.09 0.07 0.05 0.05 0.06 0.08 0.09 0.08 0.07 0.05 0.04 0.03 0.04 0.04 0.05 0.07 0.08 0.07 0.05 0.04 0.03 0.02 0.02 0.02 0.02 0.02 0.03
0.03 0.03 0.03 0.02 0.04 0.04 0.05 0.06 0.06 0.07 0.08 0.10 0.11 0.11 0.10 0.11 0.10 0.08 0.06 0.05 0.07 0.08 0.07 0.05 0.04 0.02 0.02 0.02 0.02 0.02 0.02 0.03 0.06 0.07 0.05 0.04 0.02 0.02 0.02 0.03 0.03 0.02 0.02
0.04 0.03 0.03 0.03 0.04 0.04 0.05 0.06 0.07 0.05 0.05 0.07 0.09 0.11 0.10 0.10 0.10 0.08 0.07 0.06 0.06 0.06 0.05 0.03 0.03 0.02 0.02 0.02 0.03 0.02 0.02 0.02 0.04 0.06 0.06 0.05 0.03 0.02 0.03 0.04 0.04 0.03 0.02
0.04 0.04 0.04 0.03 0.04 0.06 0.07 0.07 0.05 0.05 0.05 0.06 0.07 0.08 0.09 0.08 0.08 0.08 0.07 0.06 0.05 0.04 0.03 0.03 0.02 0.02 0.02 0.02 0.02 0.02 0.02 0.03 0.03 0.04 0.04 0.04 0.04 0.03 0.04 0.05 0.06 0.06 0.06
0.04 0.04 0.04 0.03 0.02 0.05 0.06 0.05 0.07 0.09 0.08 0.06 0.05 0.06 0.07 0.07 0.08 0.07 0.07 0.06 0.04 0.03 0.03 0.03 0.02 0.02 0.01 0.02 0.02 0.02 0.02 0.03 0.03 0.03 0.03 0.03 0.03 0.03 0.03 0.03 0.04 0.05 0.06
0.05 0.06 0.05 0.03 0.02 0.02 0.03 0.04 0.06 0.08 0.07 0.07 0.06 0.06 0.07 0.07 0.08 0.08 0.06 0.05 0.04 0.03 0.03 0.03 0.02 0.02 0.02 0.03 0.03 0.02 0.02 0.03 0.03 0.03 0.03 0.02 0.03 0.03 0.03 0.04 0.04 0.04 0.06
0.06 0.06 0.03 0.03 0.03 0.02 0.02 0.03 0.06 0.08 0.08 0.09 0.06 0.06 0.09 0.10 0.09 0.08 0.06 0.06 0.05 0.04 0.03 0.03 0.03 0.04 0.04 0.04 0.02 0.01 0.03 0.03 0.02 0.03 0.03 0.02 0.03 0.03 0.03 0.03 0.03 0.04 0.05
0.06 0.05 0.04 0.04 0.04 0.03 0.03 0.03 0.04 0.07 0.10 0.10 0.07 0.05 0.05 0.07 0.08 0.06 0.06 0.06 0.06 0.05 0.03 0.04 0.05 0.05 0.05 0.03 0.02 0.02 0.02 0.02 0.02 0.02 0.02 0.02 0.02 0.02 0.02 0.02 0.03 0.05 0.04
0.02 0.04 0.03 0.04 0.03 0.05 0.07 0.04 0.04 0.07 0.15 0.11 0.07 0.06 0.05 0.06 0.07 0.06 0.05 0.06 0.07 0.06 0.05 0.06 0.06 0.05 0.04 0.03 0.03 0.03 0.03 0.03 0.03 0.03 0.02 0.02 0.01 0.02 0.02 0.02 0.03 0.06 0.06
0.01 0.02 0.03 0.04 0.04 0.06 0.13 0.10 0.07 0.07 0.09 0.10 0.09 0.07 0.05 0.06 0.09 0.08 0.06 0.06 0.06 0.05 0.05 0.06 0.06 0.05 0.04 0.03 0.03 0.02 0.02 0.02 0.02 0.02 0.02 0.01 0.01 0.01 0.01 0.01 0.03 0.06 0.06
0.01 0.01 0.02 0.02 0.02 0.03 0.06 0.07 0.08 0.09 0.09 0.09 0.10 0.07 0.06 0.07 0.11 0.11 0.08 0.06 0.07 0.09 0.11 0.11 0.09 0.07 0.05 0.03 0.02 0.02 0.01 0.01 0.01 0.01 0.01 0.01 0.01 0.01 0.01 0.02 0.03 0.05 0.06
0.02 0.02 0.02 0.02 0.02 0.03 0.04 0.04 0.06 0.07 0.09 0.08 0.07 0.07 0.08 0.09 0.12 0.14 0.11 0.09 0.09 0.09 0.10 0.10 0.08 0.05 0.03 0.02 0.01 0.02 0.02 0.02 0.02 0.02 0.02 0.02 0.02 0.02 0.02 0.02 0.03 0.05 0.06
0.04 0.03 0.03 0.03 0.03 0.03 0.04 0.05 0.06 0.07 0.07 0.09 0.09 0.07 0.08 0.10 0.09 0.10 0.08 0.05 0.04 0.04 0.03 0.02 0.02 0.01 0.01 0.01 0.01 0.01 0.01 0.02 0.02 0.03 0.03 0.03 0.04 0.04 0.04 0.03 0.04 0.05 0.05
0.07 0.05 0.04 0.05 0.04 0.04 0.05 0.06 0.06 0.06 0.06 0.06 0.07 0.07 0.07 0.09 0.05 0.06 0.05 0.03 0.01 0.01 0.01 0.01 0.01 0.01 0.01 0.01 0.01 0.02 0.01 0.02 0.02 0.01 0.02 0.03 0.03 0.04 0.04 0.04 0.04 0.03 0.03
0.05 0.05 0.05 0.04 0.04 0.04 0.05 0.06 0.05 0.06 0.06 0.07 0.07 0.07 0.05 0.05 0.04 0.03 0.03 0.02 0.01 0.01 0.01 0.00 0.00 0.01 0.01 0.01 0.02 0.03 0.04 0.04 0.02 0.01 0.01 0.01 0.02 0.02 0.02 0.03 0.03 0.03 0.03
0.04 0.05 0.04 0.03 0.03 0.04 0.05 0.05 0.04 0.04 0.06 0.08 0.08 0.07 0.05 0.04 0.03 0.02 0.02 0.02 0.01 0.01 0.00 0.00 0.00 0.01 0.01 0.02 0.03 0.05 0.06 0.05 0.04 0.03 0.03 0.03 0.03 0.04 0.03 0.03 0.03 0.03 0.03
0.03 0.04 0.04 0.03 0.04 0.05 0.04 0.04 0.04 0.05 0.06 0.07 0.08 0.07 0.05 0.04 0.04 0.03 0.02 0.02 0.01 0.01 0.01 0.01 0.01 0.02 0.02 0.03 0.05 0.06 0.06 0.05 0.04 0.03 0.03 0.03 0.03 0.03 0.02 0.03 0.03 0.02 0.02
0.02 0.03 0.02 0.02 0.02 0.04 0.03 0.02 0.02 0.03 0.05 0.05 0.07 0.07 0.03 0.03 0.03 0.03 0.03 0.02 0.02 0.02 0.02 0.02 0.03 0.03 0.04 0.04 0.05 0.04 0.04 0.03 0.02 0.02 0.02 0.01 0.02 0.02 0.02 0.02 0.03 0.02 0.03
0.02 0.02 0.02 0.01 0.02 0.02 0.02 0.02 0.01 0.02 0.04 0.04 0.04 0.03 0.02 0.02 0.02 0.02 0.02 0.02 0.02 0.03 0.03 0.02 0.02 0.02 0.02 0.02 0.03 0.03 0.03 0.02 0.02 0.01 0.01 0.01 0.01 0.02 0.02 0.02 0.02 0.03 0.03
0.02 0.02 0.01 0.01 0.01 0.02 0.02 0.02 0.01 0.02 0.03 0.03 0.03 0.02 0.01 0.02 0.02 0.02 0.01 0.01 0.01 0.01 0.01 0.01 0.01 0.01 0.01 0.01 0.01 0.01 0.02 0.02 0.02 0.01 0.01 0.01 0.02 0.03 0.03 0.03 0.03 0.02 0.03
MSLP
1015.60 1015.50 1015.34 1015.11 1014.76 1014.32 1013.80 1013.26 1012.74 1012.31 1012.01 1011.85 1011.82 1011.88 1011.96 1012.03 1012.01 1011.89 1011.65 1011.32 1010.95 1010.57 1010.23 1009.97 1009.78 1009.66 1009.57 1009.46 1009.30 1009.06 1008.71 1008.27 1007.76 1007.21 1006.68 1006.18 1005.75 1005.40 1005.14 1004.97 1004.87 1004.85 1004.88
1015.72 1015.71 1015.64 1015.46 1015.16 1014.75 1014.25 1013.72 1013.24 1012.85 1012.60 1012.47 1012.46 1012.50 1012.55 1012.54 1012.43 1012.21 1011.89 1011.50 1011.10 1010.74 1010.44 1010.24 1010.13 1010.07 1010.02 1009.93 1009.76 1009.50 1009.12 1008.64 1008.10 1007.53 1006.95 1006.41 1005.92 1005.49 1005.13 1004.84 1004.61 1004.45 1004.36
1015.78 1015.86 1015.87 1015.76 1015.50 1015.11 1014.63 1014.13 1013.68 1013.33 1013.11 1013.03 1013.03 1013.07 1013.09 1013.02 1012.84 1012.54 1012.14 1011.70 1011.28 1010.91 1010.64 1010.48 1010.41 1010.39 1010.38 1010.31 1010.16 1009.90 1009.53 1009.06 1008.53 1007.96 1007.38 1006.82 1006.28 1005.77 1005.29 1004.86 1004.47 1004.15 1003.92
1015.82 1015.98 1016.06 1015.99 1015.75 1015.38 1014.91 1014.43 1014.00 1013.68 1013.50 1013.45 1013.48 1013.53 1013.54 1013.44 1013.21 1012.85 1012.41 1011.92 1011.47 1011.09 1010.82 1010.67 1010.62 1010.62 1010.63 1010.58 1010.45 1010.22 1009.88 1009.45 1008.95 1008.42 1007.86 1007.29 1006.71 1006.13 1005.55 1004.98 1004.44 1003.96 1003.57
1015.85 1016.07 1016.18 1016.14 1015.92 1015.55 1015.08 1014.60 1014.19 1013.90 1013.76 1013.74 1013.80 1013.87 1013.88 1013.78 1013.53 1013.14 1012.67 1012.16 1011.67 1011.27 1010.99 1010.83 1010.77 1010.76 1010.76 1010.72 1010.61 1010.41 1010.11 1009.73 1009.30 1008.81 1008.29 1007.74 1007.14 1006.50 1005.83 1005.14 1004.46 1003.83 1003.30
1015.85 1016.10 1016.24 1016.21 1015.99 1015.61 1015.15 1014.67 1014.27 1014.00 1013.89 1013.90 1013.99 1014.09 1014.12 1014.03 1013.78 1013.40 1012.91 1012.39 1011.89 1011.47 1011.15 1010.96 1010.86 1010.83 1010.80 1010.75 1010.64 1010.46 1010.21 1009.88 1009.51 1009.08 1008.60 1008.07 1007.47 1006.80 1006.06 1005.29 1004.50 1003.76 1003.11
1015.79 1016.06 1016.21 1016.18 1015.97 1015.59 1015.13 1014.66 1014.28 1014.03 1013.93 1013.97 1014.09 1014.21 1014.26 1014.19 1013.97 1013.60 1013.12 1012.60 1012.09 1011.65 1011.30 1011.07 1010.92 1010.84 1010.77 1010.69 1010.57 1010.40 1010.17 1009.88 1009.55 1009.18 1008.74 1008.24 1007.65 1006.97 1006.21 1005.39 1004.55 1003.74 1003.01
1015.63 1015.92 1016.08 1016.07 1015.88 1015.52 1015.08 1014.63 1014.26 1014.03 1013.94 1013.99 1014.12 1014.26 1014.33 1014.28 1014.08 1013.73 1013.28 1012.77 1012.26 1011.81 1011.44 1011.16 1010.96 1010.82 1010.70 1010.58 1010.43 1010.24 1010.02 1009.75 1009.46 1009.12 1008.72 1008.25 1007.69 1007.03 1006.28 1005.45 1004.60 1003.77 1003.01
1015.38 1015.69 1015.88 1015.91 1015.74 1015.42 1015.02 1014.60 1014.26 1014.04 1013.96 1014.01 1014.13 1014.27 1014.34 1014.29 1014.11 1013.79 1013.36 1012.88 1012.39 1011.93 1011.55 1011.24 1011.00 1010.80 1010.63 1010.45 1010.26 1010.05 1009.81 1009.54 1009.26 1008.94 1008.57 1008.13 1007.61 1006.99 1006.27 1005.49 1004.67 1003.86 1003.10
1015.07 1015.41 1015.64 1015.71 1015.60 1015.33 1014.98 1014.61 1014.29 1014.09 1014.01 1014.04 1014.14 1014.24 1014.30 1014.25 1014.07 1013.77 1013.38 1012.92 1012.46 1012.02 1011.63 1011.30 1011.03 1010.79 1010.56 1010.34 1010.10 1009.84 1009.57 1009.30 1009.00 1008.69 1008.34 1007.94 1007.46 1006.89 1006.24 1005.52 1004.76 1004.00 1003.29
1014.75 1015.12 1015.39 1015.51 1015.46 1015.27 1014.98 1014.66 1014.37 1014.18 1014.09 1014.09 1014.15 1014.21 1014.22 1014.15 1013.97 1013.69 1013.32 1012.90 1012.47 1012.05 1011.68 1011.35 1011.05 1010.78 1010.51 1010.24 1009.95 1009.66 1009.35 1009.05 1008.74 1008.43 1008.09 1007.72 1007.28 1006.77 1006.19 1005.55 1004.87 1004.19 1003.53
1014.50 1014.89 1015.19 1015.36 1015.36 1015.23 1015.00 1014.73 1014.48 1014.29 1014.18 1014.15 1014.15 1014.16 1014.13 1014.03 1013.84 1013.56 1013.22 1012.83 1012.44 1012.05 1011.70 1011.37 1011.06 1010.76 1010.46 1010.15 1009.82 1009.49 1009.15 1008.82 1008.50 1008.18 1007.85 1007.50 1007.11 1006.66 1006.15 1005.58 1004.98 1004.37 1003.78
1014.36 1014.75 1015.06 1015.24 1015.29 1015.20 1015.02 1014.80 1014.58 1014.40 1014.27 1014.20 1014.16 1014.12 1014.04 1013.90 1013.69 1013.42 1013.09 1012.74 1012.37 1012.01 1011.67 1011.35 1011.03 1010.71 1010.38 1010.03 1009.68 1009.31 1008.95 1008.60 1008.27 1007.95 1007.63 1007.30 1006.94 1006.54 1006.09 1005.59 1005.06 1004.51 1003.97
1014.37 1014.72 1015.00 1015.18 1015.23 1015.17 1015.03 1014.84 1014.64 1014.47 1014.34 1014.24 1014.16 1014.07 1013.95 1013.79 1013.57 1013.29 1012.98 1012.64 1012.29 1011.95 1011.61 1011.28 1010.94 1010.60 1010.24 1009.87 1009.49 1009.10 1008.73 1008.37 1008.04 1007.72 1007.42 1007.11 1006.77 1006.41 1006.00 1005.55 1005.06 1004.56 1004.05
1014.51 1014.77 1014.99 1015.13 1015.17 1015.12 1014.99 1014.83 1014.66 1014.50 1014.37 1014.25 1014.15 1014.04 1013.89 1013.71 1013.47 1013.19 1012.88 1012.55 1012.20 1011.85 1011.50 1011.15 1010.79 1010.42 1010.03 1009.64 1009.24 1008.84 1008.46 1008.11 1007.79 1007.49 1007.20 1006.90 1006.59 1006.25 1005.86 1005.43 1004.98 1004.50 1004.02
1014.71 1014.88 1015.01 1015.09 1015.09 1015.03 1014.91 1014.77 1014.62 1014.48 1014.36 1014.25 1014.14 1014.01 1013.86 1013.66 1013.42 1013.13 1012.81 1012.46 1012.10 1011.73 1011.35 1010.97 1010.57 1010.17 1009.75 1009.34 1008.93 1008.53 1008.17 1007.83 1007.52 1007.24 1006.96 1006.68 1006.38 1006.05 1005.67 1005.26 1004.81 1004.34 1003.87
1014.93 1014.98 1015.02 1015.02 1014.98 1014.90 1014.79 1014.67 1014.55 1014.44 1014.33 1014.24 1014.13 1014.01 1013.84 1013.64 1013.38 1013.09 1012.75 1012.38 1011.99 1011.59 1011.17 1010.74 1010.31 1009.87 1009.43 1009.00 1008.59 1008.21 1007.86 1007.55 1007.26 1006.99 1006.73 1006.46 1006.16 1005.83 1005.45 1005.03 1004.58 1004.11 1003.65
1015.08 1015.02 1014.97 1014.92 1014.84 1014.75 1014.65 1014.55 1014.46 1014.37 1014.30 1014.22 1014.12 1014.00 1013.83 1013.62 1013.36 1013.04 1012.68 1012.29 1011.86 1011.42 1010.96 1010.49 1010.02 1009.56 1009.11 1008.68 1008.28 1007.92 1007.59 1007.30 1007.04 1006.79 1006.54 1006.26 1005.96 1005.61 1005.22 1004.79 1004.34 1003.87 1003.41
1015.13 1014.99 1014.87 1014.77 1014.68 1014.59 1014.51 1014.43 1014.37 1014.31 1014.26 1014.19 1014.10 1013.98 1013.80 1013.58 1013.30 1012.96 1012.57 1012.15 1011.70 1011.22 1010.73 1010.24 1009.75 1009.28 1008.83 1008.42 1008.04 1007.70 1007.41 1007.14 1006.89 1006.65 1006.40 1006.12 1005.80 1005.43 1005.03 1004.59 1004.13 1003.67 1003.23
1015.04 1014.86 1014.71 1014.60 1014.51 1014.44 1014.38 1014.33 1014.30 1014.26 1014.22 1014.15 1014.06 1013.92 1013.73 1013.48 1013.17 1012.81 1012.41 1011.96 1011.49 1011.00 1010.50 1010.00 1009.52 1009.06 1008.64 1008.25 1007.90 1007.60 1007.33 1007.08 1006.84 1006.60 1006.33 1006.03 1005.69 1005.30 1004.88 1004.44 1003.99 1003.55 1003.12
1014.85 1014.65 1014.51 1014.41 1014.34 1014.30 1014.27 1014.26 1014.24 1014.21 1014.17 1014.09 1013.97 1013.81 1013.59 1013.31 1012.97 1012.59 1012.16 1011.71 1011.23 1010.74 1010.25 1009.78 1009.33 1008.91 1008.52 1008.18 1007.87 1007.59 1007.35 1007.11 1006.87 1006.61 1006.32 1005.99 1005.62 1005.22 1004.79 1004.35 1003.92 1003.51 1003.12
1014.56 1014.38 1014.27 1014.21 1014.18 1014.17 1014.18 1014.18 1014.18 1014.15 1014.09 1013.98 1013.83 1013.63 1013.37 1013.05 1012.69 1012.28 1011.85 1011.39 1010.92 1010.46 1010.00 1009.57 1009.17 1008.80 1008.46 1008.16 1007.90 1007.65 1007.42 1007.18 1006.92 1006.64 1006.32 1005.97 1005.58 1005.17 1004.74 1004.32 1003.91 1003.54 1003.21
1014.23 1014.09 1014.01 1013.99 1014.00 1014.04 1014.07 1014.09 1014.08 1014.04 1013.96 1013.82 1013.62 1013.38 1013.07 1012.72 1012.33 1011.91 1011.47 1011.03 1010.58 1010.15 1009.74 1009.36 1009.01 1008.69 1008.41 1008.16 1007.93 1007.70 1007.47 1007.23 1006.96 1006.65 1006.31 1005.93 1005.53 1005.11 1004.70 1004.31 1003.95 1003.64 1003.37
1013.88 1013.77 1013.73 1013.75 1013.81 1013.87 1013.92 1013.95 1013.94 1013.88 1013.76 1013.59 1013.36 1013.07 1012.73 1012.35 1011.94 1011.51 1011.07 1010.64 1010.22 1009.83 1009.46 1009.13 1008.83 1008.56 1008.32 1008.10 1007.90 1007.68 1007.46 1007.20 1006.92 1006.59 1006.23 1005.84 1005.44 1005.04 1004.66 1004.32 1004.02 1003.77 1003.56
1013.51 1013.44 1013.43 1013.48 1013.55 1013.63 1013.70 1013.73 1013.71 1013.63 1013.50 1013.30 1013.03 1012.72 1012.36 1011.96 1011.54 1011.11 1010.68 1010.26 1009.87 1009.50 1009.17 1008.87 1008.61 1008.37 1008.16 1007.97 1007.77 1007.56 1007.33 1007.08 1006.78 1006.45 1006.09 1005.72 1005.34 1004.97 1004.64 1004.36 1004.12 1003.94 1003.80
1013.15 1013.08 1013.09 1013.15 1013.24 1013.32 1013.39 1013.42 1013.40 1013.32 1013.17 1012.96 1012.68 1012.36 1011.99 1011.59 1011.17 1010.74 1010.33 1009.92 1009.54 1009.20 1008.88 1008.60 1008.36 1008.14 1007.94 1007.75 1007.55 1007.35 1007.12 1006.86 1006.57 1006.26 1005.93 1005.59 1005.25 1004.95 1004.68 1004.46 1004.29 1004.17 1004.08
Thickness
5753 5754 5752 5750 5746 5742 5738 5735 5731 5727 5724 5718 5712 5708 5706 5705 5703 5702 5700 5698 5696 5694 5692 5689 5686 5685 5682 5680 5679 5676 5674 5673 5673 5670 5669 5672 5674 5675 5675 5675 5674 5674 5674
5742 5744 5743 5740 5736 5733 5729 5726 5724 5721 5717 5713 5708 5705 5701 5697 5696 5695 5693 5692 5690 5688 5686 5683 5680 5678 5675 5673 5672 5669 5666 5665 5665 5661 5658 5657 5661 5666 5669 5669 5668 5667 5667
5733 5733 5732 5730 5726 5723 5720 5718 5714 5713 5710 5706 5702 5698 5694 5690 5687 5686 5686 5685 5684 5682 5680 5677 5674 5672 5669 5666 5664 5662 5660 5657 5657 5656 5651 5648 5647 5652 5657 5660 5661 5660 5660
5728 5725 5724 5722 5719 5716 5714 5709 5708 5705 5702 5699 5695 5691 5686 5681 5680 5680 5680 5679 5677 5676 5674 5671 5668 5665 5663 5660 5658 5656 5653 5651 5648 5648 5648 5646 5645 5642 5644 5648 5651 5652 5652
5722 5719 5717 5715 5713 5710 5706 5704 5701 5697 5694 5692 5689 5684 5680 5677 5676 5675 5674 5672 5671 5670 5667 5664 5661 5659 5657 5654 5652 5650 5647 5645 5643 5641 5640 5639 5638 5638 5635 5636 5639 5642 5644
5715 5713 5712 5709 5706 5704 5701 5697 5693 5690 5688 5686 5683 5680 5676 5673 5671 5669 5667 5665 5664 5663 5661 5658 5656 5653 5651 5649 5647 5644 5642 5640 5638 5637 5635 5633 5631 5631 5629 5628 5630 5631 5634
5706 5704 5702 5700 5698 5696 5694 5690 5686 5683 5682 5680 5677 5675 5672 5669 5666 5664 5662 5660 5657 5656 5654 5652 5650 5647 5645 5644 5641 5638 5636 5635 5633 5632 5630 5629 5627 5626 5625 5623 5622 5623 5625
5700 5699 5696 5695 5693 5691 5688 5685 5682 5679 5677 5674 5672 5671 5668 5665 5662 5661 5658 5656 5654 5652 5650 5647 5645 5643 5640 5638 5635 5633 5631 5630 5628 5627 5626 5624 5622 5621 5620 5618 5616 5615 5615
5694 5692 5690 5688 5687 5684 5682 5680 5677 5674 5672 5669 5667 5666 5663 5660 5658 5657 5655 5652 5650 5648 5645 5642 5640 5637 5635 5632 5629 5627 5625 5624 5622 5621 5619 5618 5617 5616 5615 5613 5611 5608 5606
5687 5685 5683 5682 5680 5678 5676 5674 5671 5669 5667 5664 5662 5661 5659 5657 5655 5653 5651 5648 5646 5643 5640 5637 5635 5632 5630 5627 5624 5622 5620 5618 5616 5615 5613 5612 5611 5610 5609 5607 5605 5604 5601
5678 5677 5675 5674 5673 5672 5670 5668 5665 5662 5660 5659 5658 5656 5654 5652 5650 5649 5647 5645 5642 5639 5635 5633 5630 5628 5625 5622 5619 5616 5614 5612 5610 5608 5607 5606 5605 5603 5602 5601 5599 5597 5596
5671 5670 5669 5667 5664 5664 5663 5661 5659 5657 5655 5655 5654 5652 5650 5648 5646 5644 5643 5641 5637 5634 5632 5628 5626 5623 5620 5616 5613 5611 5608 5606 5604 5602 5601 5599 5599 5597 5596 5594 5593 5592 5591
5665 5664 5662 5660 5658 5657 5656 5655 5654 5651 5651 5650 5649 5647 5645 5644 5642 5640 5638 5635 5633 5630 5627 5624 5621 5618 5615 5612 5609 5606 5603 5601 5599 5597 5595 5593 5592 5590 5590 5589 5587 5586 5587
5658 5656 5654 5653 5652 5651 5650 5649 5649 5649 5648 5646 5644 5642 5641 5640 5639 5637 5634 5631 5628 5626 5622 5620 5617 5614 5610 5607 5605 5602 5599 5596 5594 5592 5590 5589 5587 5585 5584 5583 5582 5581 5580
5653 5652 5649 5647 5646 5646 5645 5645 5645 5645 5645 5643 5642 5640 5639 5638 5636 5633 5630 5628 5625 5622 5619 5616 5613 5609 5606 5603 5600 5597 5595 5592 5589 5588 5586 5585 5584 5583 5581 5580 5578 5577 5575
5649 5648 5646 5644 5643 5642 5642 5641 5642 5642 5642 5641 5639 5638 5636 5635 5633 5630 5627 5624 5621 5618 5615 5612 5608 5605 5603 5600 5597 5594 5590 5587 5585 5583 5581 5581 5580 5579 5578 5576 5575 5574 5571
5645 5644 5642 5641 5640 5640 5640 5639 5639 5640 5639 5638 5637 5636 5634 5632 5630 5627 5624 5621 5618 5615 5612 5609 5605 5602 5600 5598 5595 5591 5587 5584 5581 5579 5577 5577 5577 5574 5572 5571 5571 5570 5569
5643 5641 5640 5639 5639 5639 5639 5639 5638 5637 5636 5635 5635 5634 5632 5630 5627 5625 5620 5618 5616 5612 5609 5606 5603 5599 5597 5595 5592 5589 5584 5581 5578 5576 5574 5572 5571 5570 5567 5566 5565 5565 5565
5641 5640 5639 5638 5637 5637 5637 5636 5635 5635 5635 5634 5633 5632 5631 5628 5625 5622 5619 5616 5614 5610 5608 5605 5601 5598 5595 5593 5590 5586 5581 5578 5575 5574 5571 5569 5567 5567 5564 5561 5559 5560 5561
5640 5639 5639 5638 5636 5636 5636 5634 5633 5633 5633 5633 5633 5631 5630 5627 5624 5620 5618 5615 5612 5609 5606 5603 5599 5596 5593 5591 5587 5584 5578 5574 5572 5571 5569 5567 5564 5562 5559 5556 5554 5554 5555
5640 5639 5638 5636 5635 5636 5635 5633 5633 5632 5633 5633 5632 5631 5630 5627 5624 5621 5617 5614 5611 5607 5603 5600 5597 5594 5591 5588 5585 5581 5576 5572 5569 5567 5565 5564 5562 5559 5556 5554 5552 5551 5550
5639 5639 5636 5635 5635 5635 5634 5632 5631 5633 5633 5633 5631 5630 5629 5627 5625 5620 5616 5612 5608 5604 5600 5597 5594 5592 5589 5586 5583 5579 5575 5571 5566 5564 5562 5560 5558 5556 5554 5552 5551 5549 5547
5638 5637 5636 5635 5634 5635 5634 5632 5633 5633 5632 5631 5630 5629 5628 5625 5622 5618 5614 5610 5606 5601 5597 5593 5590 5588 5586 5583 5580 5576 5573 5569 5564 5561 5559 5556 5554 5552 5551 5550 5548 5545 5542
5637 5637 5635 5634 5634 5635 5635 5634 5635 5634 5632 5630 5628 5627 5625 5623 5620 5617 5613 5608 5604 5600 5596 5592 5589 5585 5582 5579 5575 5571 5568 5565 5561 5556 5554 5552 5550 5548 5546 5544 5542 5540 5536
5637 5636 5635 5634 5635 5636 5636 5636 5635 5633 5631 5629 5627 5626 5623 5620 5617 5614 5611 5608 5605 5601 5596 5592 5588 5583 5579 5577 5573 5567 5563 5559 5555 5551 5548 5546 5544 5542 5540 5538 5536 5534 5531
5637 5636 5635 5635 5635 5636 5636 5636 5635 5633 5630 5627 5626 5623 5621 5618 5615 5611 5609 5608 5605 5602 5598 5593 5587 5583 5580 5576 5570 5565 5561 5556 5552 5546 5542 5539 5536 5534 5533 5531 5529 5527 5525